This demonstration page uses our WeatherBlox Daily Observations layout. Learn more.

Left ArrowRight Arrow

Hourly Observations for November 28, 2021

Temp ( °F °C ) Dew Point ( °F °C ) Humidity (%) Winds ( mph kmh ) Pressure ( in mb ) Visibility ( mi km ) Precip ( " mm )
12:15 am 00:15 Clear 37 2.9 28 -2.5 68 68 NNW 6 9 30.35 1028 10 16 N/A
12:35 am 00:35 Clear 36 2.2 27 -2.9 69 69 NNW 7 11 30.35 1028 10 16 N/A
12:55 am 00:55 Clear 35 1.9 26 -3.2 69 69 NNW 5 7 30.35 1028 10 16 N/A
1:15 am 01:15 Clear 32 0.1 25 -3.8 75 75 NNW 5 7 30.36 1028 10 16 N/A
1:35 am 01:35 Clear 33 0.3 26 -3.5 76 76 NNW 5 7 30.35 1028 10 16 N/A
1:55 am 01:55 Clear 31 -0.7 24 -4.5 76 76 N 5 7 30.35 1028 10 16 N/A
2:15 am 02:15 Clear 30 -0.9 24 -4.3 78 78 N 5 7 30.34 1028 10 16 N/A
2:35 am 02:35 Clear 29 -1.6 24 -4.7 80 80 N N/A 30.36 1028 10 16 N/A
2:55 am 02:55 Clear 30 -1.3 24 -4.4 80 80 N N/A 30.35 1028 10 16 N/A
3:15 am 03:15 Clear 28 -2.3 22 -5.3 80 80 W 5 7 30.37 1028 10 16 N/A
3:35 am 03:35 Clear 28 -2.3 22 -5.5 79 79 W 5 7 30.38 1029 10 16 N/A
3:55 am 03:55 Clear 29 -1.6 24 -4.5 81 81 W 3 6 30.35 1028 10 16 N/A
4:15 am 04:15 Clear 29 -1.7 23 -4.8 80 80 WNW 5 7 30.36 1028 10 16 N/A
4:35 am 04:35 Clear 29 -1.8 24 -4.5 82 82 W 3 6 30.35 1028 10 16 N/A
4:55 am 04:55 Clear 29 -1.9 23 -4.9 80 80 W 3 6 30.36 1028 10 16 N/A
5:15 am 05:15 Clear 29 -1.7 24 -4.6 81 81 N N/A 30.36 1028 10 16 N/A
5:35 am 05:35 Clear 27 -2.7 23 -5.2 83 83 N N/A 30.37 1029 10 16 N/A
5:55 am 05:55 Clear 27 -2.9 22 -5.7 81 81 N N/A 30.36 1028 10 16 N/A
6:15 am 06:15 Clear 27 -2.9 22 -5.7 81 81 N N/A 30.38 1029 10 16 N/A
6:35 am 06:35 Clear 26 -3.6 22 -5.8 85 85 N N/A 30.39 1029 10 16 N/A
6:55 am 06:55 Clear 29 -1.4 24 -4.2 81 81 N N/A 30.38 1029 10 16 N/A
7:15 am 07:15 Clear 30 -1 25 -4.1 80 80 WSW 3 6 30.36 1028 10 16 N/A
7:35 am 07:35 Clear 31 -0.7 25 -3.9 79 79 N N/A 30.35 1028 10 16 N/A
7:55 am 07:55 Sunny 29 -1.4 24 -4.3 81 81 WSW 3 6 30.36 1028 10 16 N/A
8:15 am 08:15 Sunny 30 -0.9 25 -3.8 81 81 W 5 7 30.35 1028 10 16 N/A
8:35 am 08:35 Sunny 32 undefined 26 -3.5 78 78 WSW 3 6 30.35 1028 10 16 N/A
8:55 am 08:55 Sunny 35 1.8 28 -2.4 74 74 SW 5 7 30.32 1027 10 16 N/A
9:15 am 09:15 Sunny 38 3.3 28 -2 69 69 SW 3 6 30.30 1026 10 16 N/A
9:35 am 09:35 Sunny 39 4 28 -2 65 65 SW 8 13 30.29 1026 10 16 N/A
9:55 am 09:55 Sunny 41 4.9 29 -1.5 64 64 SSW 9 15 30.28 1025 10 16 N/A
10:15 am 10:15 Sunny 41 5 28 -2 61 61 SW 9 15 30.28 1025 10 16 N/A
10:35 am 10:35 Sunny 43 6.2 29 -1.7 57 57 SSW 13 20 30.27 1025 10 16 N/A
10:55 am 10:55 Sunny 45 7 29 -1.5 55 55 SSW 15 24 30.24 1024 10 16 N/A
11:15 am 11:15 Sunny 45 7.3 30 -1.3 55 55 SSW 17 28 30.23 1024 10 16 N/A
11:35 am 11:35 Sunny 46 7.5 29 -1.6 53 53 SSW 20 31 30.23 1024 10 16 N/A
11:55 am 11:55 Sunny 47 8.5 29 -1.4 50 50 SSW 17 28 30.20 1023 10 16 N/A
12:15 pm 12:15 Sunny 48 9 30 -0.9 50 50 SSW 17 28 30.17 1022 10 16 N/A
12:35 pm 12:35 Sunny 51 10.3 30 -1.2 45 45 SSW 16 26 30.14 1021 10 16 N/A
12:55 pm 12:55 Sunny 52 11.2 29 -1.9 40 40 SSW 16 26 30.11 1020 10 16 N/A
1:15 pm 13:15 Sunny 53 11.8 29 -1.8 39 39 SSW 16 26 30.11 1020 10 16 N/A
1:35 pm 13:35 Sunny 54 12 29 -1.8 39 39 SW 13 20 30.11 1019 10 16 N/A
1:55 pm 13:55 Sunny 55 12.9 29 -1.5 37 37 SW 16 26 30.08 1019 10 16 N/A
2:15 pm 14:15 Sunny 55 12.8 29 -1.5 37 37 SW 14 22 30.07 1018 10 16 N/A
2:35 pm 14:35 Sunny 56 13.5 29 -1.5 36 36 SSW 15 24 30.04 1017 10 16 N/A
2:55 pm 14:55 Sunny 57 14 29 -1.5 35 35 SSW 15 24 30.03 1017 10 16 N/A
3:15 pm 15:15 Sunny 58 14.3 29 -1.5 34 34 SSW 14 22 30.02 1016 10 16 N/A
3:35 pm 15:35 Sunny 57 14 29 -1.6 34 34 SW 12 19 30.02 1017 10 16 N/A
3:55 pm 15:55 Sunny 57 14 29 -1.5 35 35 SSW 9 15 30.01 1016 10 16 N/A
4:15 pm 16:15 Sunny 57 14 29 -1.5 35 35 SSW 8 13 30.01 1016 10 16 N/A
4:35 pm 16:35 Sunny 56 13.5 29 -1.5 36 36 SSW 8 13 30.01 1016 10 16 N/A
4:55 pm 16:55 Sunny 55 12.6 29 -1.6 38 38 SSW 6 9 30.02 1017 10 16 N/A
5:15 pm 17:15 Clear 54 12.1 28 -2 38 38 S 5 7 30.02 1017 10 16 N/A
5:35 pm 17:35 Clear 52 11.3 29 -1.8 40 40 S 7 11 30.03 1017 10 16 N/A
5:55 pm 17:55 Clear 50 9.8 29 -1.6 45 45 S 6 9 30.04 1017 10 16 N/A
6:15 pm 18:15 Clear 46 7.6 28 -2.1 51 51 N N/A 30.07 1018 10 16 N/A
6:35 pm 18:35 Clear 46 8 28 -2 50 50 S 6 9 30.07 1018 10 16 N/A
6:55 pm 18:55 Clear 45 7.2 29 -1.8 53 53 S 6 9 30.07 1018 10 16 N/A
7:15 pm 19:15 Clear 46 7.5 29 -1.5 53 53 S 5 7 30.07 1018 10 16 N/A
7:35 pm 19:35 Clear 46 7.5 29 -1.5 53 53 SSW 7 11 30.05 1017 10 16 N/A
7:55 pm 19:55 Clear 44 6.4 29 -1.7 57 57 SSW 5 7 30.06 1018 10 16 N/A
8:15 pm 20:15 Clear 44 6.5 29 -1.5 57 57 SSW 6 9 30.05 1018 10 16 N/A
8:35 pm 20:35 Clear 44 6.6 29 -1.5 57 57 SW 3 6 30.05 1018 10 16 N/A
8:55 pm 20:55 Clear 44 6.4 29 -1.5 57 57 SW 5 7 30.06 1018 10 16 N/A
9:15 pm 21:15 Clear 45 7 29 -1.4 55 55 SW 6 9 30.05 1018 10 16 N/A
9:35 pm 21:35 Clear 45 7 29 -1.5 55 55 SW 5 7 30.05 1018 10 16 N/A
9:55 pm 21:55 Clear 44 6.9 29 -1.5 55 55 WSW 3 6 30.05 1018 10 16 N/A
10:15 pm 22:15 Clear 46 7.5 29 -1.4 54 54 WSW 3 6 30.05 1017 10 16 N/A
10:35 pm 22:35 Clear 46 7.7 29 -1.4 53 53 N N/A 30.04 1017 10 16 N/A
10:55 pm 22:55 Clear 45 7.4 29 -1.4 54 54 WSW 3 6 30.04 1017 10 16 N/A
11:15 pm 23:15 Clear 45 7.4 29 -1.5 54 54 WSW 3 6 30.04 1017 10 16 N/A
11:35 pm 23:35 Clear 46 8 29 -1.5 51 51 WSW 5 7 30.02 1017 10 16 N/A
11:55 pm 23:55 Clear 47 8.1 30 -1.1 53 53 WSW 7 11 30.03 1017 10 16 N/A

Powered by AerisWeather